History for Miami, FL

Friday, February 22, 2013 — View Current Conditions

Jump to Data:

Date:
Airport Code:
Recently Viewed Airport Codes: KMIA
Daily Summary
  Actual Average Record
Temperature
Mean Temperature 78°F 71°F  
Max Temperature 82°F 79°F 87°F (1974)
Min Temperature 73°F 63°F 40°F (1901)
Degree Days
Heating Degree Days 0 1  
Month to date heating degree days 16 22  
Since 1 July heating degree days 36 112  
Cooling Degree Days 13 7  
Month to date cooling degree days 141 129  
Year to date cooling degree days 410 280  
Growing Degree Days 28 (Base 50)    
Moisture
Dew Point 69°F    
Average Humidity 78    
Maximum Humidity 93    
Minimum Humidity 62    
Precipitation
Precipitation 0.00 in 0.08 in 4.54 in (1966)
Month to date precipitation 1.74 1.75  
Year to date precipitation 2.28 3.37  
Snow
Snow 0.00 in in in ()
Month to date snowfall 0.0  
Since 1 July snowfall 0.0  
Snow Depth 0.00 in    
Sea Level Pressure
Sea Level Pressure 30.07 in    
Wind
Wind Speed 12 mph (ESE)    
Max Wind Speed 18 mph    
Max Gust Speed 25 mph    
Visibility 10 miles    
Events      
T = Trace of Precipitation, MM = Missing Value Source: NWS Daily Summary

Show full METARS

(help) - Comma Delimited File

Hourly Observations

Time(EST) Temperature Dew Point Humidity Sea Level Pressure Visibility Wind Direction Wind Speed Gust Speed Precipitation Events Conditions
12:53 AM 73.4°F 66.2°F 78% 30.06 in 10.0 miles ESE 8.1 mph - N/A   Scattered Clouds
1:53 AM 73.0°F 68.0°F 84% 30.04 in 10.0 miles ESE 6.9 mph - N/A   Mostly Cloudy
2:53 AM 73.0°F 69.1°F 87% 30.03 in 10.0 miles East 8.1 mph - N/A   Mostly Cloudy
3:00 AM 73.4°F 69.8°F 88% 30.03 in 10.0 miles ESE 8.1 mph - N/A   Scattered Clouds
3:53 AM 73.9°F 69.1°F 85% 30.03 in 10.0 miles ESE 8.1 mph - N/A   Mostly Cloudy
4:53 AM 73.0°F 69.1°F 87% 30.04 in 10.0 miles ESE 9.2 mph - N/A   Scattered Clouds
5:53 AM 73.0°F 68.0°F 84% 30.05 in 10.0 miles ESE 6.9 mph - N/A   Scattered Clouds
6:53 AM 73.0°F 68.0°F 84% 30.07 in 10.0 miles ESE 9.2 mph - N/A   Scattered Clouds
7:53 AM 75.0°F 69.1°F 82% 30.09 in 10.0 miles ESE 10.4 mph - N/A   Scattered Clouds
8:51 AM 77.0°F 69.8°F 78% 30.10 in 10.0 miles ESE 13.8 mph - N/A   Mostly Cloudy
8:53 AM 77.0°F 69.1°F 76% 30.10 in 10.0 miles ESE 15.0 mph - N/A   Mostly Cloudy
9:53 AM 79.0°F 69.1°F 72% 30.11 in 10.0 miles ESE 16.1 mph 20.7 mph N/A   Mostly Cloudy
10:53 AM 80.1°F 68.0°F 67% 30.11 in 10.0 miles ESE 12.7 mph - N/A   Mostly Cloudy
11:10 AM 80.6°F 68.0°F 65% 30.11 in 10.0 miles SE 13.8 mph 19.6 mph N/A   Mostly Cloudy
11:50 AM 78.8°F 68.0°F 69% 30.11 in 10.0 miles SE 10.4 mph 20.7 mph N/A   Mostly Cloudy
11:53 AM 80.1°F 68.0°F 67% 30.11 in 10.0 miles ESE 13.8 mph 20.7 mph N/A   Mostly Cloudy
12:53 PM 82.0°F 69.1°F 65% 30.09 in 10.0 miles ESE 13.8 mph 23.0 mph N/A   Mostly Cloudy
1:53 PM 80.1°F 66.9°F 64% 30.06 in 10.0 miles SSE 13.8 mph 23.0 mph N/A   Mostly Cloudy
2:30 PM 80.6°F 69.8°F 70% 30.05 in 10.0 miles SE 13.8 mph 20.7 mph N/A   Scattered Clouds
2:53 PM 81.0°F 69.1°F 67% 30.05 in 10.0 miles SE 13.8 mph - N/A   Scattered Clouds
3:53 PM 79.0°F 69.1°F 72% 30.04 in 10.0 miles ESE 17.3 mph - N/A   Scattered Clouds
4:53 PM 78.1°F 69.1°F 74% 30.05 in 10.0 miles SE 13.8 mph - N/A   Scattered Clouds
5:53 PM 77.0°F 69.1°F 76% 30.06 in 10.0 miles ESE 12.7 mph - N/A   Scattered Clouds
6:53 PM 75.9°F 69.1°F 79% 30.06 in 10.0 miles ESE 11.5 mph - N/A   Scattered Clouds
7:53 PM 75.0°F 70.0°F 84% 30.07 in 10.0 miles ESE 10.4 mph - N/A   Scattered Clouds
8:53 PM 75.0°F 70.0°F 84% 30.08 in 10.0 miles ESE 11.5 mph - N/A   Partly Cloudy
9:53 PM 75.0°F 70.0°F 84% 30.08 in 10.0 miles East 11.5 mph - N/A   Scattered Clouds
10:53 PM 73.9°F 71.1°F 91% 30.08 in 10.0 miles East 10.4 mph - N/A   Partly Cloudy
11:46 PM 73.4°F 69.8°F 88% 30.07 in 10.0 miles East 11.5 mph - N/A   Mostly Cloudy
11:53 PM 73.9°F 70.0°F 87% 30.06 in 10.0 miles East 13.8 mph - N/A   Mostly Cloudy